Retour au catalogue

STARLINK-36362

ActifCommunicationsVLEO
NORAD 67424·PAYLOAD·🇺🇸 United States

Lancé Jan 12, 2026 depuis Cape Canaveral Space Force Station

Loading…

Prochains Passages (prochaines 24 heures)

TLE

FraisSource: CelesTrak SupGP

Époque: Sep 14, 2026, 23:23 UTC

1 67424C 26005W   26257.97479167  .00027084  00000+0  98086-3 0  2579
2 67424  43.0031 249.0356 0001312 267.3332 134.1353 15.27569883    13

Suivez STARLINK-36362 en temps réel avec AllMySat

Download on the App Store